Погода в Посёлке имени Карла Либкнехта

Россия / Курская область     51°37′08″N   35°28′37″E
темп.,
°C
ветер,
м/с
пор.,
м/с
влажн.,
%
обл.,
%
осадки,
мм/ч
давл.,
гПа
погр.,
м
6 мая, чт
чт600:00+12ююз61463100 0.0 1011425
03:00+10ю61373100 0.0 1011398
06:00+10ю61478100 0.0 1010541
09:00+12ю8146399 0.1 1010931
12:00+12ю81465100 0.1 1009977
15:00+13юз71362100 0.1 10091438
18:00+10зсз5889100 0.2 1010563
21:00+8юз1295100 3.3 1012108
7 мая, пт
пт700:00+7зюз3595100 0.1 1013122
03:00+5зсз239299 0.1 101439
06:00+5з22875 0.0 101520
09:00+11зюз22615 0.0 1016499
12:00+14ююз33405 0.0 10151636
15:00+15ю5643100 0.0 10142010
18:00+14ююв585977 0.0 1013615
21:00+10ююв41073100 0.0 1013224
8 мая, сб
сб800:00+10ю51372100 0.1 1011550
03:00+9ююв91887100 4.7 1008689
06:00+10ю81596100 6.8 1006636
09:00+11ююз71297100 8.4 1006618
12:00+10зсз61194100 8.1 1008633
15:00+11з8981100 9.4 10091158
18:00+8зсз81179100 0.1 10121089
21:00+6з4982100 0.1 1013352
9 мая, вс
вс900:00+5зсз61282100 0.0 1015494
03:00+3зсз411880 0.0 1016333
06:00+2зсз410910 0.0 1018318
09:00+8сз577416 0.0 1019883
12:00+11сз795594 0.1 10202081
15:00+11ссз6953100 0.2 10212341
18:00+11с58605 0.1 10231342
21:00+5св34795 0.1 102648
10 мая, пн
пн1000:00+4ссз22812 0.0 102723
03:00+3ссз33845 0.0 102936
06:00+3с36840 0.0 1030122
09:00+10ссв59630 0.0 1030834
12:00+13ссв79515 0.0 10291502
15:00+14ссв79515 0.0 10281582
18:00+13ссв69640 0.0 10271191
21:00+8ссв4128172 0.0 1028266